Zurück zum Katalog

CZ-6A DEB

AktivPO
NORAD 55207·DEBRIS·🇨🇳 China

Gestartet Nov 11, 2022 von Taiyuan Satellite Launch Center

Loading…

Nächste Überflüge (nächste 24 Stunden)

TLE

AktuellSource: Space-Track

Epoche: Sep 13, 2026, 16:28 UTC

1 55207U 22151VY  26256.68622197  .00011726  00000-0  13361-2 0  9995
2 55207  98.6332 340.5470 0055585 331.9189  27.9027 14.85213167198842

Verfolge CZ-6A DEB in Echtzeit mit AllMySat

Download on the App Store